Change the Weather History Date:

Thursday, December 16, 2010

  Actual Average Record
Temperature  
Mean Temperature 23 °F 23 °F  
Max Temperature 30 °F 34 °F 61 °F (1939)
Min Temperature 15 °F 13 °F -27 °F (1964)
Degree Days  
Heating Degree Days 42 42  
Month to date heating degree days 590 651  
Since 1 July heating degree days 2321 2526  
Cooling Degree Days 0 0  
Month to date cooling degree days 0 0  
Year to date cooling degree days 429 502  
Moisture  
Dew Point 11 °F    
Average Humidity 65    
Maximum Humidity 80    
Minimum Humidity 49    
Precipitation  
Precipitation 0.00 in 0.01 in 0.44 in (1981)
Month to date precipitation 0.13 0.23  
Year to date precipitation 13.36 13.72  
Sea Level Pressure  
Sea Level Pressure 30.12 in    
Wind  
Wind Speed 11 mph (West)    
Max Wind Speed 17 mph    
Max Gust Speed 20 mph    
Visibility 10 miles    
Events      
T = Trace of Precipitation, MM = Missing Value Source: NWS Daily Summary

Daily Weather History Graph

Daily Weather History Graph

Search for Another Location

Airport or City:

Trip Planner

Search our weather history database for the weather conditions in past years. The results will help you decide how hot, cold, wet, or windy it might be!

Date:

Astronomy

Dec. 16, 2010 Rise Set
Actual Time 7:31 AM MST 4:23 PM MST
Civil Twilight 6:58 AM MST 4:57 PM MST
Nautical Twilight 6:21 AM MST 5:33 PM MST
Astronomical Twilight 5:46 AM MST 6:09 PM MST
Moon 1:03 PM MST (12/16) 2:46 AM MST (12/16)
Length of Visible Light 9h 58m
Length of Day
8h 51m
Waxing Gibbous, 79% of the Moon is Illuminated
Dec 16
Waxing Gibbous
Dec 21
Full
Dec 27
Last Quarter
Jan 4
New
Jan 12
First Quarter

Hourly Weather History & Observations

Time (MST) Temp. Windchill Dew Point Humidity Pressure Visibility Wind Dir Wind Speed Gust Speed Precip Events Conditions
12:53 AM 19.9 °F 8.6 °F 12.9 °F 74% 30.01 in 10.0 mi West 10.4 mph - N/A   Clear
1:53 AM 21.0 °F 8.6 °F 12.9 °F 71% 30.02 in 10.0 mi West 12.7 mph - N/A   Clear
2:53 AM 19.0 °F 7.5 °F 10.9 °F 71% 30.04 in 10.0 mi West 10.4 mph - N/A   Clear
3:53 AM 19.0 °F 6.8 °F 10.0 °F 68% 30.03 in 10.0 mi West 11.5 mph - N/A   Clear
4:53 AM 19.0 °F 6.1 °F 10.0 °F 68% 30.06 in 10.0 mi WSW 12.7 mph - N/A   Clear
5:53 AM 19.0 °F 6.8 °F 10.0 °F 68% 30.06 in 10.0 mi West 11.5 mph - N/A   Clear
6:53 AM 19.0 °F 6.1 °F 9.0 °F 65% 30.08 in 10.0 mi West 12.7 mph - N/A   Clear
7:53 AM 19.0 °F 6.8 °F 8.1 °F 62% 30.10 in 10.0 mi West 11.5 mph - N/A   Clear
8:53 AM 21.0 °F 9.3 °F 9.0 °F 60% 30.12 in 10.0 mi West 11.5 mph - N/A   Clear
9:53 AM 23.0 °F 11.7 °F 10.9 °F 60% 30.14 in 10.0 mi West 11.5 mph - N/A   Clear
10:53 AM 26.6 °F 15.2 °F 10.4 °F 51% 30.00 in 10.0 mi WNW 13.8 mph - N/A   Clear
11:53 AM 27.0 °F 15.6 °F 12.0 °F 53% 30.11 in 10.0 mi WNW 13.8 mph - N/A   Clear
12:53 PM 28.4 °F 18.5 °F 12.2 °F 51% 29.97 in 10.0 mi WNW 11.5 mph - N/A   Clear
1:53 PM 30.0 °F 20.5 °F 14.0 °F 51% 30.10 in 10.0 mi WNW 11.5 mph - N/A   Clear
2:53 PM 28.9 °F 19.2 °F 12.9 °F 51% 30.13 in 10.0 mi WNW 11.5 mph - N/A   Clear
3:53 PM 26.1 °F 16.8 °F 14.0 °F 60% 30.16 in 10.0 mi WNW 9.2 mph - N/A   Clear
4:53 PM 19.9 °F 9.3 °F 12.0 °F 71% 30.19 in 10.0 mi West 9.2 mph - N/A   Clear
5:53 PM 19.0 °F 8.2 °F 12.0 °F 74% 30.20 in 10.0 mi West 9.2 mph - N/A   Clear
6:53 PM 18.0 °F 5.4 °F 12.0 °F 78% 30.22 in 10.0 mi West 11.5 mph - N/A   Clear
7:53 PM 17.1 °F 5.0 °F 10.9 °F 77% 30.22 in 10.0 mi West 10.4 mph - N/A   Clear
8:53 PM 16.0 °F 3.6 °F 10.9 °F 81% 30.22 in 10.0 mi West 10.4 mph - N/A   Clear
9:53 PM 17.1 °F 5.8 °F 10.0 °F 74% 30.22 in 10.0 mi West 9.2 mph - N/A   Clear
10:53 PM 17.1 °F 5.8 °F 10.0 °F 74% 30.22 in 10.0 mi WSW 9.2 mph - N/A   Clear
11:53 PM 16.0 °F 4.4 °F 10.0 °F 77% 30.23 in 10.0 mi West 9.2 mph - N/A   Clear